sat.trackr.live / text

‹ back to catalog

STARLINK-32951

NORAD 63562 · 2025-075Q

PAYLOAD ACTIVE UNKNOWN

§ Identity

Operator
Country
US
Launch date
2025-04-13
Launch site
AFETR
Launch vehicle
Mass (kg)
RCS (m²)

Purposes: comms

External: N2YO · Heavens-Above · Gunter

§ Orbital elements

Epoch: 2026-05-25T04:14:27.269664Z

Period
94.27 min
Inclination
42.9986°
Eccentricity
0.0001304
Mean motion
15.27588074 rev/d
Perigee alt
482.1 km
Apogee alt
483.9 km
Semi-major
6,861.2 km
B*
4.0880e-4
RAAN
198.7731°
Arg perigee
277.1026°
Mean anomaly
82.9677°
Rev number
6,363

§ Raw data

STARLINK-329511 63562U 25075Q   26145.17670451  .00011007  00000+0  40880-3 0  99912 63562  42.9986 198.7731 0001304 277.1026  82.9677 15.27588074 63635

JSON: /api/v1/satellites/63562 · /tle

For live sub-satellite position, see the globe view (requires WebGL).

§ Visibility from observer

Set your observer location to see the next 7 days of passes ≥ 10°. The values pass through the URL so the page stays shareable.

No JS? Fill the form by hand. The geolocation button needs JavaScript.